Time,TemperatureF,DewpointF,PressureIn,WindDirection,WindDirectionDegrees,WindSpeedMPH,WindSpeedGustMPH,Humidity,HourlyPrecipIn,Conditions,Clouds,dailyrainin,SoftwareType,DateUTC
2013-10-02 00:02:00,58.6,52.8,29.80,ENE,67,2.2,3.6,81,0.00,,,0.00,WUHU21623XXSP,2013-10-01 22:02:00,
2013-10-02 00:07:00,58.8,53.0,29.79,ESE,112,3.1,7.4,81,0.00,,,0.00,WUHU21623XXSP,2013-10-01 22:07:00,
2013-10-02 00:12:00,58.8,53.0,29.79,NNE,22,2.0,7.4,81,0.00,,,0.00,WUHU21623XXSP,2013-10-01 22:12:00,
2013-10-02 00:17:00,58.6,52.8,29.79,East,90,3.6,5.1,81,0.00,,,0.00,WUHU21623XXSP,2013-10-01 22:17:00,
2013-10-02 00:22:00,58.6,52.8,29.79,NE,45,2.5,5.1,81,0.00,,,0.00,WUHU21623XXSP,2013-10-01 22:22:00,
2013-10-02 00:27:00,58.6,52.8,29.79,ENE,67,1.3,5.1,81,0.00,,,0.00,WUHU21623XXSP,2013-10-01 22:27:00,
2013-10-02 00:33:00,58.5,52.7,29.79,ENE,67,2.7,5.1,81,0.00,,,0.00,WUHU21623XXSP,2013-10-01 22:33:00,
2013-10-02 00:38:00,58.3,52.8,29.79,NE,45,2.2,3.4,82,0.00,,,0.00,WUHU21623XXSP,2013-10-01 22:38:00,
2013-10-02 00:43:00,58.1,52.6,29.79,ENE,67,2.5,3.8,82,0.00,,,0.00,WUHU21623XXSP,2013-10-01 22:43:00,
2013-10-02 00:48:00,57.7,52.6,29.79,ENE,67,2.7,3.8,83,0.00,,,0.00,WUHU21623XXSP,2013-10-01 22:48:00,
2013-10-02 00:53:00,57.6,52.4,29.80,ESE,112,2.2,2.7,83,0.00,,,0.00,WUHU21623XXSP,2013-10-01 22:53:00,
2013-10-02 00:58:00,57.6,52.4,29.79,East,90,2.0,4.0,83,0.00,,,0.00,WUHU21623XXSP,2013-10-01 22:58:00,
2013-10-02 01:03:00,57.6,52.4,29.79,East,90,0.0,4.0,83,0.00,,,0.00,WUHU21623XXSP,2013-10-01 23:03:00,
2013-10-02 01:08:00,57.4,52.2,29.79,ENE,67,2.5,3.6,83,0.00,,,0.00,WUHU21623XXSP,2013-10-01 23:08:00,
2013-10-02 01:13:00,57.4,52.6,29.79,ENE,67,2.7,3.6,84,0.00,,,0.00,WUHU21623XXSP,2013-10-01 23:13:00,
2013-10-02 01:18:00,57.0,52.2,29.79,NE,45,2.7,3.6,84,0.00,,,0.00,WUHU21623XXSP,2013-10-01 23:18:00,
2013-10-02 01:20:00,57.0,52.2,29.79,ENE,67,3.4,3.6,84,0.00,,,0.00,WUHU21623XXSP,2013-10-01 23:20:00,
2013-10-02 01:25:00,56.8,52.0,29.80,ENE,67,2.2,5.1,84,0.00,,,0.00,WUHU21623XXSP,2013-10-01 23:25:00,
2013-10-02 01:30:00,56.8,52.3,29.80,ENE,67,2.2,5.8,85,0.00,,,0.00,WUHU21623XXSP,2013-10-01 23:30:00,
2013-10-02 01:35:00,56.8,52.3,29.79,East,90,2.9,5.8,85,0.00,,,0.00,WUHU21623XXSP,2013-10-01 23:35:00,
2013-10-02 01:40:00,56.8,52.3,29.79,ENE,67,1.3,3.8,85,0.00,,,0.00,WUHU21623XXSP,2013-10-01 23:40:00,
2013-10-02 01:45:00,56.7,52.2,29.79,ESE,112,1.6,4.0,85,0.00,,,0.00,WUHU21623XXSP,2013-10-01 23:45:00,
2013-10-02 01:50:00,56.7,52.2,29.79,ENE,67,2.0,4.0,85,0.00,,,0.00,WUHU21623XXSP,2013-10-01 23:50:00,
2013-10-02 01:55:00,56.7,52.2,29.79,ENE,67,2.5,5.6,85,0.00,,,0.00,WUHU21623XXSP,2013-10-01 23:55:00,
2013-10-02 02:00:00,56.8,52.3,29.79,NNE,22,4.0,5.6,85,0.00,,,0.00,WUHU21623XXSP,2013-10-02 00:00:00,
2013-10-02 02:05:00,56.8,52.3,29.79,ENE,67,5.1,5.1,85,0.00,,,0.00,WUHU21623XXSP,2013-10-02 00:05:00,
2013-10-02 02:10:00,56.8,52.3,29.79,ENE,67,5.1,5.1,85,0.00,,,0.00,WUHU21623XXSP,2013-10-02 00:10:00,
2013-10-02 02:15:00,56.8,52.3,29.79,ENE,67,2.5,5.1,85,0.00,,,0.00,WUHU21623XXSP,2013-10-02 00:15:00,
2013-10-02 02:16:00,56.8,52.3,29.79,ENE,67,0.9,5.1,85,0.00,,,0.00,WUHU21623XXSP,2013-10-02 00:16:00,
2013-10-02 02:21:00,56.7,52.2,29.79,NE,45,1.3,4.7,85,0.00,,,0.00,WUHU21623XXSP,2013-10-02 00:21:00,
2013-10-02 02:26:00,56.5,52.3,29.79,ENE,67,4.0,4.0,86,0.00,,,0.00,WUHU21623XXSP,2013-10-02 00:26:00,
2013-10-02 02:31:00,56.5,52.3,29.79,East,90,2.9,4.7,86,0.00,,,0.00,WUHU21623XXSP,2013-10-02 00:31:00,
2013-10-02 02:36:00,56.5,52.3,29.79,ENE,67,2.5,4.7,86,0.00,,,0.00,WUHU21623XXSP,2013-10-02 00:36:00,
2013-10-02 02:41:00,56.5,52.3,29.80,ENE,67,3.8,6.0,86,0.00,,,0.00,WUHU21623XXSP,2013-10-02 00:41:00,
2013-10-02 02:46:00,56.5,52.3,29.80,East,90,3.1,6.0,86,0.00,,,0.00,WUHU21623XXSP,2013-10-02 00:46:00,
2013-10-02 02:51:00,56.3,52.4,29.80,ENE,67,4.9,5.1,87,0.00,,,0.00,WUHU21623XXSP,2013-10-02 00:51:00,
2013-10-02 02:56:00,56.3,52.4,29.80,ENE,67,4.5,5.1,87,0.00,,,0.00,WUHU21623XXSP,2013-10-02 00:56:00,
2013-10-02 03:01:00,56.1,52.3,29.80,ENE,67,2.9,4.9,87,0.00,,,0.00,WUHU21623XXSP,2013-10-02 01:01:00,
2013-10-02 03:06:00,56.1,52.3,29.80,ENE,67,6.0,6.0,87,0.00,,,0.00,WUHU21623XXSP,2013-10-02 01:06:00,
2013-10-02 03:11:00,56.1,52.6,29.80,NNE,22,4.3,6.0,88,0.00,,,0.00,WUHU21623XXSP,2013-10-02 01:11:00,
2013-10-02 03:16:00,56.1,52.6,29.80,ENE,67,2.5,5.1,88,0.00,,,0.00,WUHU21623XXSP,2013-10-02 01:16:00,
2013-10-02 03:21:00,56.3,52.8,29.80,East,90,3.6,5.1,88,0.00,,,0.00,WUHU21623XXSP,2013-10-02 01:21:00,
2013-10-02 03:26:00,56.5,53.0,29.80,NE,45,2.9,4.0,88,0.00,,,0.00,WUHU21623XXSP,2013-10-02 01:26:00,
2013-10-02 03:31:00,56.5,53.0,29.80,ENE,67,2.7,5.6,88,0.00,,,0.00,WUHU21623XXSP,2013-10-02 01:31:00,
2013-10-02 03:36:00,56.5,53.0,29.80,NE,45,3.6,5.6,88,0.00,,,0.00,WUHU21623XXSP,2013-10-02 01:36:00,
2013-10-02 03:41:00,56.8,53.1,29.80,ESE,112,5.1,5.1,88,0.00,,,0.00,WUHU21623XXSP,2013-10-02 01:41:00,
2013-10-02 03:46:00,56.8,53.3,29.80,ENE,67,3.6,5.6,88,0.00,,,0.00,WUHU21623XXSP,2013-10-02 01:46:00,
2013-10-02 03:51:00,56.8,53.3,29.80,East,90,5.8,5.8,88,0.00,,,0.00,WUHU21623XXSP,2013-10-02 01:51:00,
2013-10-02 03:56:00,57.0,53.5,29.80,ENE,67,2.5,5.8,88,0.00,,,0.00,WUHU21623XXSP,2013-10-02 01:56:00,
2013-10-02 04:01:00,57.0,53.5,29.80,ENE,67,3.4,5.8,88,0.00,,,0.00,WUHU21623XXSP,2013-10-02 02:01:00,
2013-10-02 04:06:00,56.8,53.3,29.80,ESE,112,6.5,6.5,88,0.00,,,0.00,WUHU21623XXSP,2013-10-02 02:06:00,
2013-10-02 04:11:00,56.8,53.3,29.79,East,90,3.1,6.5,88,0.00,,,0.00,WUHU21623XXSP,2013-10-02 02:11:00,
2013-10-02 04:16:00,56.8,53.3,29.80,East,90,3.6,4.3,88,0.00,,,0.00,WUHU21623XXSP,2013-10-02 02:16:00,
2013-10-02 04:21:00,56.7,53.5,29.80,East,90,2.0,5.6,89,0.00,,,0.00,WUHU21623XXSP,2013-10-02 02:21:00,
2013-10-02 04:26:00,56.5,53.3,29.80,East,90,2.5,5.6,89,0.00,,,0.00,WUHU21623XXSP,2013-10-02 02:26:00,
2013-10-02 04:31:00,56.5,53.3,29.80,East,90,2.2,5.4,89,0.00,,,0.00,WUHU21623XXSP,2013-10-02 02:31:00,
2013-10-02 04:36:00,56.5,53.3,29.80,ENE,67,5.1,5.1,89,0.00,,,0.00,WUHU21623XXSP,2013-10-02 02:36:00,
2013-10-02 04:41:00,56.5,53.6,29.79,NE,45,3.8,5.1,90,0.00,,,0.00,WUHU21623XXSP,2013-10-02 02:41:00,
2013-10-02 04:46:00,56.5,53.6,29.80,ESE,112,1.1,3.8,90,0.00,,,0.00,WUHU21623XXSP,2013-10-02 02:46:00,
2013-10-02 04:51:00,56.3,53.4,29.80,ENE,67,4.0,4.0,90,0.00,,,0.00,WUHU21623XXSP,2013-10-02 02:51:00,
2013-10-02 04:56:00,56.3,53.4,29.79,ENE,67,5.8,5.8,90,0.00,,,0.00,WUHU21623XXSP,2013-10-02 02:56:00,
2013-10-02 05:01:00,56.3,53.4,29.79,East,90,1.8,5.8,90,0.00,,,0.00,WUHU21623XXSP,2013-10-02 03:01:00,
2013-10-02 05:06:00,56.3,53.4,29.79,ENE,67,3.8,4.0,90,0.00,,,0.00,WUHU21623XXSP,2013-10-02 03:06:00,
2013-10-02 05:11:00,56.3,53.4,29.79,ENE,67,3.8,3.8,90,0.00,,,0.00,WUHU21623XXSP,2013-10-02 03:11:00,
2013-10-02 05:16:00,56.5,53.9,29.79,ENE,67,6.0,6.0,91,0.00,,,0.00,WUHU21623XXSP,2013-10-02 03:16:00,
2013-10-02 05:21:00,56.8,54.2,29.79,SE,135,2.2,8.1,91,0.00,,,0.00,WUHU21623XXSP,2013-10-02 03:21:00,
2013-10-02 05:26:00,56.8,54.2,29.80,East,90,5.4,8.1,91,0.00,,,0.00,WUHU21623XXSP,2013-10-02 03:26:00,
2013-10-02 05:31:00,56.8,54.2,29.80,ENE,67,2.9,5.6,91,0.00,,,0.00,WUHU21623XXSP,2013-10-02 03:31:00,
2013-10-02 05:36:00,57.0,54.4,29.80,East,90,3.1,5.6,91,0.00,,,0.00,WUHU21623XXSP,2013-10-02 03:36:00,
2013-10-02 05:41:00,57.0,54.4,29.80,ENE,67,3.1,5.6,91,0.00,,,0.00,WUHU21623XXSP,2013-10-02 03:41:00,
2013-10-02 05:46:00,57.0,54.4,29.79,ESE,112,3.1,5.1,91,0.00,,,0.00,WUHU21623XXSP,2013-10-02 03:46:00,
2013-10-02 05:51:00,57.0,54.4,29.79,NE,45,2.5,5.1,91,0.00,,,0.00,WUHU21623XXSP,2013-10-02 03:51:00,
2013-10-02 05:56:00,57.0,54.4,29.79,ESE,112,1.3,6.0,91,0.00,,,0.00,WUHU21623XXSP,2013-10-02 03:56:00,
2013-10-02 06:01:00,57.0,54.4,29.79,ESE,112,2.5,6.0,91,0.00,,,0.00,WUHU21623XXSP,2013-10-02 04:01:00,
2013-10-02 06:06:00,57.2,54.6,29.80,East,90,2.2,4.3,91,0.00,,,0.00,WUHU21623XXSP,2013-10-02 04:06:00,
2013-10-02 06:11:00,57.4,54.8,29.80,SE,135,4.0,4.3,91,0.00,,,0.00,WUHU21623XXSP,2013-10-02 04:11:00,
2013-10-02 06:16:00,57.4,54.8,29.80,East,90,0.9,4.0,91,0.00,,,0.00,WUHU21623XXSP,2013-10-02 04:16:00,
2013-10-02 06:21:00,57.4,54.8,29.81,East,90,3.8,3.8,91,0.00,,,0.00,WUHU21623XXSP,2013-10-02 04:21:00,
2013-10-02 06:26:00,57.4,54.8,29.80,ENE,67,1.6,3.8,91,0.00,,,0.00,WUHU21623XXSP,2013-10-02 04:26:00,
2013-10-02 06:31:00,57.4,54.8,29.80,ENE,67,1.3,4.0,91,0.00,,,0.00,WUHU21623XXSP,2013-10-02 04:31:00,
2013-10-02 06:36:00,57.4,54.8,29.80,NE,45,1.6,4.0,91,0.00,,,0.00,WUHU21623XXSP,2013-10-02 04:36:00,
2013-10-02 06:41:00,57.4,54.8,29.80,East,90,5.1,5.1,91,0.00,,,0.00,WUHU21623XXSP,2013-10-02 04:41:00,
2013-10-02 06:46:00,57.2,54.6,29.80,ESE,112,2.7,5.1,91,0.00,,,0.00,WUHU21623XXSP,2013-10-02 04:46:00,
2013-10-02 06:51:00,57.2,54.6,29.80,ESE,112,2.0,2.7,91,0.00,,,0.00,WUHU21623XXSP,2013-10-02 04:51:00,
2013-10-02 06:56:00,57.0,54.4,29.80,NE,45,2.5,3.8,91,0.00,,,0.00,WUHU21623XXSP,2013-10-02 04:56:00,
2013-10-02 07:01:00,57.0,54.4,29.80,East,90,1.8,3.8,91,0.00,,,0.00,WUHU21623XXSP,2013-10-02 05:01:00,
2013-10-02 07:06:00,57.0,54.4,29.80,ENE,67,3.6,3.8,91,0.00,,,0.00,WUHU21623XXSP,2013-10-02 05:06:00,
2013-10-02 07:11:00,56.8,54.2,29.80,NE,45,0.7,4.5,91,0.00,,,0.00,WUHU21623XXSP,2013-10-02 05:11:00,
2013-10-02 07:16:00,56.8,54.2,29.80,ENE,67,4.5,5.1,91,0.00,,,0.00,WUHU21623XXSP,2013-10-02 05:16:00,
2013-10-02 07:21:00,56.8,54.2,29.80,ENE,67,0.0,5.1,91,0.00,,,0.00,WUHU21623XXSP,2013-10-02 05:21:00,
2013-10-02 07:26:00,56.8,54.5,29.80,NE,45,2.9,4.3,92,0.00,,,0.00,WUHU21623XXSP,2013-10-02 05:26:00,
2013-10-02 07:31:00,56.8,54.5,29.80,East,90,0.7,4.3,92,0.00,,,0.00,WUHU21623XXSP,2013-10-02 05:31:00,
2013-10-02 07:36:00,56.8,54.5,29.80,ENE,67,4.5,4.5,92,0.00,,,0.00,WUHU21623XXSP,2013-10-02 05:36:00,
2013-10-02 07:41:00,56.8,54.5,29.80,ENE,67,3.1,4.5,92,0.00,,,0.00,WUHU21623XXSP,2013-10-02 05:41:00,
2013-10-02 07:46:00,56.7,54.4,29.80,ENE,67,1.8,3.6,92,0.00,,,0.00,WUHU21623XXSP,2013-10-02 05:46:00,
2013-10-02 07:51:00,56.5,54.2,29.80,ENE,67,3.4,4.5,92,0.00,,,0.00,WUHU21623XXSP,2013-10-02 05:51:00,
2013-10-02 07:56:00,56.5,54.2,29.80,ENE,67,3.4,4.5,92,0.00,,,0.00,WUHU21623XXSP,2013-10-02 05:56:00,
2013-10-02 08:01:00,56.5,54.2,29.81,NE,45,4.5,4.9,92,0.00,,,0.00,WUHU21623XXSP,2013-10-02 06:01:00,
2013-10-02 08:06:00,56.5,54.2,29.81,East,90,2.7,4.9,92,0.00,,,0.00,WUHU21623XXSP,2013-10-02 06:06:00,
2013-10-02 08:11:00,56.5,54.2,29.81,ESE,112,4.5,4.5,92,0.00,,,0.00,WUHU21623XXSP,2013-10-02 06:11:00,
2013-10-02 08:16:00,56.8,54.8,29.81,ESE,112,4.0,4.7,93,0.00,,,0.00,WUHU21623XXSP,2013-10-02 06:16:00,
2013-10-02 08:21:00,56.8,54.8,29.81,NE,45,2.5,6.0,93,0.00,,,0.00,WUHU21623XXSP,2013-10-02 06:21:00,
2013-10-02 08:26:00,57.0,54.7,29.82,SE,135,0.9,6.0,92,0.00,,,0.00,WUHU21623XXSP,2013-10-02 06:26:00,
2013-10-02 08:31:00,57.0,55.0,29.81,ESE,112,0.0,3.4,93,0.00,,,0.00,WUHU21623XXSP,2013-10-02 06:31:00,
2013-10-02 08:36:00,56.8,54.8,29.82,ESE,112,4.0,4.0,93,0.00,,,0.00,WUHU21623XXSP,2013-10-02 06:36:00,
2013-10-02 08:41:00,56.8,54.8,29.82,SE,135,3.8,4.0,93,0.00,,,0.00,WUHU21623XXSP,2013-10-02 06:41:00,
2013-10-02 08:46:00,56.8,54.8,29.82,ESE,112,2.5,3.8,93,0.00,,,0.00,WUHU21623XXSP,2013-10-02 06:46:00,
2013-10-02 08:51:00,56.8,54.8,29.82,NE,45,2.5,3.8,93,0.00,,,0.00,WUHU21623XXSP,2013-10-02 06:51:00,
2013-10-02 08:56:00,57.0,55.0,29.81,ESE,112,2.2,4.3,93,0.00,,,0.00,WUHU21623XXSP,2013-10-02 06:56:00,
2013-10-02 09:01:00,57.0,54.7,29.82,ESE,112,2.9,4.3,92,0.00,,,0.00,WUHU21623XXSP,2013-10-02 07:01:00,
2013-10-02 09:06:00,57.0,54.7,29.82,ENE,67,1.6,6.7,92,0.00,,,0.00,WUHU21623XXSP,2013-10-02 07:06:00,
2013-10-02 09:11:00,57.0,54.7,29.81,SE,135,1.8,6.7,92,0.00,,,0.00,WUHU21623XXSP,2013-10-02 07:11:00,
2013-10-02 09:16:00,57.0,54.7,29.82,ESE,112,3.4,6.3,92,0.00,,,0.00,WUHU21623XXSP,2013-10-02 07:16:00,
2013-10-02 09:21:00,57.0,54.7,29.82,ESE,112,6.9,6.9,92,0.00,,,0.00,WUHU21623XXSP,2013-10-02 07:21:00,
2013-10-02 09:26:00,57.4,55.1,29.82,ENE,67,1.8,6.9,92,0.00,,,0.00,WUHU21623XXSP,2013-10-02 07:26:00,
2013-10-02 09:31:00,57.6,55.3,29.82,ESE,112,0.0,4.5,92,0.00,,,0.00,WUHU21623XXSP,2013-10-02 07:31:00,
2013-10-02 09:36:00,57.7,55.4,29.82,ESE,112,2.5,5.1,92,0.00,,,0.00,WUHU21623XXSP,2013-10-02 07:36:00,
2013-10-02 09:41:00,57.9,55.6,29.83,South,180,0.0,5.1,92,0.00,,,0.00,WUHU21623XXSP,2013-10-02 07:41:00,
2013-10-02 09:46:00,58.3,56.0,29.83,SSE,157,0.0,5.1,92,0.00,,,0.00,WUHU21623XXSP,2013-10-02 07:46:00,
2013-10-02 09:51:00,58.6,56.3,29.83,East,90,1.6,5.1,92,0.00,,,0.00,WUHU21623XXSP,2013-10-02 07:51:00,
2013-10-02 09:56:00,58.8,56.5,29.83,ENE,67,6.3,6.3,92,0.00,,,0.00,WUHU21623XXSP,2013-10-02 07:56:00,
2013-10-02 10:01:00,58.8,56.5,29.83,ESE,112,0.0,6.3,92,0.00,,,0.00,WUHU21623XXSP,2013-10-02 08:01:00,
2013-10-02 10:06:00,59.2,56.6,29.83,ENE,67,0.9,4.7,91,0.00,,,0.00,WUHU21623XXSP,2013-10-02 08:06:00,
2013-10-02 10:11:00,59.2,56.6,29.83,SSE,157,0.0,5.6,91,0.00,,,0.00,WUHU21623XXSP,2013-10-02 08:11:00,
2013-10-02 10:16:00,59.5,56.9,29.84,SE,135,1.6,5.6,91,0.00,,,0.00,WUHU21623XXSP,2013-10-02 08:16:00,
2013-10-02 10:21:00,59.7,56.8,29.83,ESE,112,0.0,2.9,90,0.00,,,0.00,WUHU21623XXSP,2013-10-02 08:21:00,
2013-10-02 10:26:00,60.1,57.2,29.83,ENE,67,3.1,3.1,90,0.00,,,0.00,WUHU21623XXSP,2013-10-02 08:26:00,
2013-10-02 10:31:00,60.4,57.6,29.84,ESE,112,1.3,5.1,90,0.00,,,0.00,WUHU21623XXSP,2013-10-02 08:31:00,
2013-10-02 10:35:00,60.6,57.4,29.83,East,90,2.7,5.1,89,0.00,,,0.00,WUHU21623XXSP,2013-10-02 08:35:00,
2013-10-02 10:40:00,60.6,57.4,29.84,East,90,3.8,4.7,89,0.00,,,0.00,WUHU21623XXSP,2013-10-02 08:40:00,
2013-10-02 10:45:00,61.0,57.8,29.84,ENE,67,2.5,5.8,89,0.00,,,0.00,WUHU21623XXSP,2013-10-02 08:45:00,
2013-10-02 10:50:00,61.3,57.8,29.84,SSE,157,0.0,6.0,88,0.00,,,0.00,WUHU21623XXSP,2013-10-02 08:50:00,
2013-10-02 10:55:00,61.7,58.2,29.84,SE,135,1.3,6.0,88,0.00,,,0.00,WUHU21623XXSP,2013-10-02 08:55:00,
2013-10-02 11:00:00,62.2,58.7,29.84,ESE,112,4.5,4.5,88,0.00,,,0.00,WUHU21623XXSP,2013-10-02 09:00:00,
2013-10-02 11:05:00,61.9,58.0,29.84,East,90,1.6,4.5,87,0.00,,,0.00,WUHU21623XXSP,2013-10-02 09:05:00,
2013-10-02 11:10:00,62.2,58.3,29.84,ESE,112,0.0,4.5,87,0.00,,,0.00,WUHU21623XXSP,2013-10-02 09:10:00,
2013-10-02 11:15:00,63.0,59.1,29.85,South,180,0.0,2.7,87,0.00,,,0.00,WUHU21623XXSP,2013-10-02 09:15:00,
2013-10-02 11:20:00,63.7,59.4,29.85,ENE,67,0.0,2.9,86,0.00,,,0.00,WUHU21623XXSP,2013-10-02 09:20:00,
2013-10-02 11:25:00,64.2,59.6,29.85,SE,135,2.7,2.9,85,0.00,,,0.00,WUHU21623XXSP,2013-10-02 09:25:00,
2013-10-02 11:30:00,64.6,59.6,29.85,ENE,67,3.1,3.1,84,0.00,,,0.00,WUHU21623XXSP,2013-10-02 09:30:00,
2013-10-02 11:35:00,64.2,59.3,29.85,SE,135,0.0,4.7,84,0.00,,,0.00,WUHU21623XXSP,2013-10-02 09:35:00,
2013-10-02 11:40:00,64.2,59.3,29.85,ESE,112,2.0,4.7,83,0.00,,,0.00,WUHU21623XXSP,2013-10-02 09:40:00,
2013-10-02 11:45:00,64.4,58.9,29.85,ESE,112,2.7,4.5,83,0.00,,,0.00,WUHU21623XXSP,2013-10-02 09:45:00,
2013-10-02 11:50:00,64.6,59.3,29.85,SE,135,2.0,4.5,83,0.00,,,0.00,WUHU21623XXSP,2013-10-02 09:50:00,
2013-10-02 11:55:00,64.2,58.9,29.85,ENE,67,0.0,4.5,83,0.00,,,0.00,WUHU21623XXSP,2013-10-02 09:55:00,
2013-10-02 12:00:00,64.4,59.1,29.85,East,90,0.0,3.4,83,0.00,,,0.00,WUHU21623XXSP,2013-10-02 10:00:00,
2013-10-02 12:05:00,64.8,59.3,29.85,SSE,157,0.0,3.4,83,0.00,,,0.00,WUHU21623XXSP,2013-10-02 10:05:00,
2013-10-02 12:10:00,65.3,60.0,29.85,NE,45,2.5,2.9,83,0.00,,,0.00,WUHU21623XXSP,2013-10-02 10:10:00,
2013-10-02 12:15:00,65.8,60.5,29.85,SE,135,3.6,3.6,83,0.00,,,0.00,WUHU21623XXSP,2013-10-02 10:15:00,
2013-10-02 12:20:00,66.4,60.7,29.85,SSE,157,0.0,5.4,82,0.00,,,0.00,WUHU21623XXSP,2013-10-02 10:20:00,
2013-10-02 12:25:00,66.7,60.8,29.85,South,180,0.0,5.4,81,0.00,,,0.00,WUHU21623XXSP,2013-10-02 10:25:00,
2013-10-02 12:30:00,66.6,60.3,29.85,SE,135,0.9,4.9,80,0.00,,,0.00,WUHU21623XXSP,2013-10-02 10:30:00,
2013-10-02 12:35:00,66.6,60.3,29.85,North,0,0.0,4.9,80,0.00,,,0.00,WUHU21623XXSP,2013-10-02 10:35:00,
2013-10-02 12:40:00,66.9,60.2,29.85,ESE,112,2.5,4.5,79,0.00,,,0.00,WUHU21623XXSP,2013-10-02 10:40:00,
2013-10-02 12:45:00,67.6,61.7,29.85,ENE,67,2.2,4.7,81,0.00,,,0.00,WUHU21623XXSP,2013-10-02 10:45:00,
2013-10-02 12:50:00,67.8,61.5,29.85,South,180,3.6,4.7,80,0.00,,,0.00,WUHU21623XXSP,2013-10-02 10:50:00,
2013-10-02 12:55:00,68.7,62.0,29.84,SE,135,0.9,3.8,79,0.00,,,0.00,WUHU21623XXSP,2013-10-02 10:55:00,
2013-10-02 13:00:00,69.1,61.5,29.84,NE,45,3.6,5.1,77,0.00,,,0.00,WUHU21623XXSP,2013-10-02 11:00:00,
2013-10-02 13:05:00,69.4,61.9,29.85,North,0,0.0,5.1,77,0.00,,,0.00,WUHU21623XXSP,2013-10-02 11:05:00,
2013-10-02 13:10:00,69.6,61.6,29.85,SE,135,1.1,5.1,76,0.00,,,0.00,WUHU21623XXSP,2013-10-02 11:10:00,
2013-10-02 13:15:00,69.4,61.9,29.85,SW,225,3.8,5.1,77,0.00,,,0.00,WUHU21623XXSP,2013-10-02 11:15:00,
2013-10-02 13:20:00,69.6,62.0,29.85,SE,135,3.6,7.2,77,0.00,,,0.00,WUHU21623XXSP,2013-10-02 11:20:00,
2013-10-02 13:25:00,70.0,62.0,29.85,East,90,1.1,7.2,76,0.00,,,0.00,WUHU21623XXSP,2013-10-02 11:25:00,
2013-10-02 13:30:00,69.6,61.3,29.85,ESE,112,2.9,4.0,75,0.00,,,0.00,WUHU21623XXSP,2013-10-02 11:30:00,
2013-10-02 13:35:00,69.4,61.5,29.85,SE,135,3.8,6.3,76,0.00,,,0.00,WUHU21623XXSP,2013-10-02 11:35:00,
2013-10-02 13:40:00,70.3,62.3,29.85,ESE,112,2.2,6.3,76,0.00,,,0.00,WUHU21623XXSP,2013-10-02 11:40:00,
2013-10-02 13:45:00,70.7,62.0,29.85,SE,135,6.5,6.5,74,0.00,,,0.00,WUHU21623XXSP,2013-10-02 11:45:00,
2013-10-02 13:50:00,71.2,62.9,29.85,ESE,112,2.5,6.5,75,0.00,,,0.00,WUHU21623XXSP,2013-10-02 11:50:00,
2013-10-02 13:55:00,71.6,62.5,29.85,ENE,67,2.9,5.8,73,0.00,,,0.00,WUHU21623XXSP,2013-10-02 11:55:00,
2013-10-02 14:00:00,71.2,62.1,29.85,SE,135,3.8,5.8,73,0.00,,,0.00,WUHU21623XXSP,2013-10-02 12:00:00,
2013-10-02 14:05:00,71.2,62.9,29.85,ENE,67,4.3,4.3,75,0.00,,,0.00,WUHU21623XXSP,2013-10-02 12:05:00,
2013-10-02 14:10:00,71.4,62.7,29.85,SSE,157,0.0,4.7,74,0.00,,,0.00,WUHU21623XXSP,2013-10-02 12:10:00,
2013-10-02 14:15:00,72.0,62.8,29.85,SE,135,3.6,5.1,73,0.00,,,0.00,WUHU21623XXSP,2013-10-02 12:15:00,
2013-10-02 14:20:00,72.3,63.2,29.85,SE,135,0.0,5.1,73,0.00,,,0.00,WUHU21623XXSP,2013-10-02 12:20:00,
2013-10-02 14:25:00,72.3,63.2,29.85,North,0,1.1,5.1,73,0.00,,,0.00,WUHU21623XXSP,2013-10-02 12:25:00,
2013-10-02 14:30:00,71.4,61.9,29.85,East,90,2.0,4.7,72,0.00,,,0.00,WUHU21623XXSP,2013-10-02 12:30:00,
2013-10-02 14:35:00,71.2,62.9,29.85,SE,135,2.0,3.8,75,0.00,,,0.00,WUHU21623XXSP,2013-10-02 12:35:00,
2013-10-02 14:40:00,71.6,62.9,29.85,ESE,112,4.5,4.5,74,0.00,,,0.00,WUHU21623XXSP,2013-10-02 12:40:00,
2013-10-02 14:45:00,71.4,62.3,29.85,South,180,2.7,4.7,73,0.00,,,0.00,WUHU21623XXSP,2013-10-02 12:45:00,
2013-10-02 14:50:00,72.3,63.2,29.84,East,90,2.2,4.7,73,0.00,,,0.00,WUHU21623XXSP,2013-10-02 12:50:00,
2013-10-02 14:55:00,72.7,63.6,29.84,ESE,112,1.6,4.7,73,0.00,,,0.00,WUHU21623XXSP,2013-10-02 12:55:00,
2013-10-02 15:00:00,73.8,64.1,29.84,NNE,22,2.5,4.7,72,0.00,,,0.00,WUHU21623XXSP,2013-10-02 13:00:00,
2013-10-02 15:05:00,73.9,64.0,29.85,SSW,202,1.6,4.0,71,0.00,,,0.00,WUHU21623XXSP,2013-10-02 13:05:00,
2013-10-02 15:10:00,73.9,63.6,29.85,SSE,157,2.0,6.0,70,0.00,,,0.00,WUHU21623XXSP,2013-10-02 13:10:00,
2013-10-02 15:15:00,73.6,63.3,29.85,SE,135,3.8,6.0,70,0.00,,,0.00,WUHU21623XXSP,2013-10-02 13:15:00,
2013-10-02 15:20:00,73.6,64.1,29.85,SSW,202,4.3,4.7,72,0.00,,,0.00,WUHU21623XXSP,2013-10-02 13:20:00,
2013-10-02 15:25:00,73.4,63.5,29.85,SSE,157,5.1,5.1,71,0.00,,,0.00,WUHU21623XXSP,2013-10-02 13:25:00,
2013-10-02 15:30:00,73.2,63.7,29.85,SE,135,0.0,6.9,72,0.00,,,0.00,WUHU21623XXSP,2013-10-02 13:30:00,
2013-10-02 15:35:00,72.7,63.6,29.85,SSE,157,3.1,6.9,73,0.00,,,0.00,WUHU21623XXSP,2013-10-02 13:35:00,
2013-10-02 15:40:00,73.0,63.9,29.85,ESE,112,5.4,5.4,73,0.00,,,0.00,WUHU21623XXSP,2013-10-02 13:40:00,
2013-10-02 15:45:00,72.5,63.4,29.85,East,90,0.0,5.4,73,0.00,,,0.00,WUHU21623XXSP,2013-10-02 13:45:00,
2013-10-02 15:50:00,72.1,63.0,29.85,East,90,0.0,5.1,73,0.00,,,0.00,WUHU21623XXSP,2013-10-02 13:50:00,
2013-10-02 15:55:00,72.3,63.6,29.85,NE,45,1.3,5.1,74,0.00,,,0.00,WUHU21623XXSP,2013-10-02 13:55:00,
2013-10-02 16:00:00,72.5,63.8,29.85,ESE,112,0.0,4.5,74,0.00,,,0.00,WUHU21623XXSP,2013-10-02 14:00:00,
2013-10-02 16:05:00,72.5,63.8,29.85,SSW,202,0.0,3.8,74,0.00,,,0.00,WUHU21623XXSP,2013-10-02 14:05:00,
2013-10-02 16:10:00,73.0,64.3,29.85,SE,135,2.7,2.7,74,0.00,,,0.00,WUHU21623XXSP,2013-10-02 14:10:00,
2013-10-02 16:15:00,73.6,64.4,29.84,South,180,3.1,3.6,73,0.00,,,0.00,WUHU21623XXSP,2013-10-02 14:15:00,
2013-10-02 16:20:00,73.6,64.8,29.84,ESE,112,0.0,5.4,74,0.00,,,0.00,WUHU21623XXSP,2013-10-02 14:20:00,
2013-10-02 16:25:00,74.3,64.3,29.84,SSE,157,3.6,5.8,71,0.00,,,0.00,WUHU21623XXSP,2013-10-02 14:25:00,
2013-10-02 16:30:00,74.1,64.9,29.85,South,180,2.7,5.8,73,0.00,,,0.00,WUHU21623XXSP,2013-10-02 14:30:00,
2013-10-02 16:35:00,73.8,64.8,29.84,NNE,22,0.0,3.8,73,0.00,,,0.00,WUHU21623XXSP,2013-10-02 14:35:00,
2013-10-02 16:40:00,74.1,64.5,29.84,SW,225,3.6,5.4,72,0.00,,,0.00,WUHU21623XXSP,2013-10-02 14:40:00,
2013-10-02 16:45:00,74.1,64.2,29.85,SE,135,0.7,5.4,71,0.00,,,0.00,WUHU21623XXSP,2013-10-02 14:45:00,
2013-10-02 16:50:00,73.9,64.4,29.85,SE,135,2.7,6.9,72,0.00,,,0.00,WUHU21623XXSP,2013-10-02 14:50:00,
2013-10-02 16:55:00,73.2,64.1,29.85,ESE,112,2.2,6.9,73,0.00,,,0.00,WUHU21623XXSP,2013-10-02 14:55:00,
2013-10-02 17:00:00,73.2,64.5,29.85,SSE,157,0.0,4.7,74,0.00,,,0.00,WUHU21623XXSP,2013-10-02 15:00:00,
2013-10-02 17:05:00,73.0,64.3,29.85,NE,45,0.0,4.7,74,0.00,,,0.00,WUHU21623XXSP,2013-10-02 15:05:00,
2013-10-02 17:10:00,72.7,63.9,29.85,SSE,157,1.8,5.4,74,0.00,,,0.00,WUHU21623XXSP,2013-10-02 15:10:00,
2013-10-02 17:15:00,72.7,63.9,29.85,East,90,0.7,5.4,74,0.00,,,0.00,WUHU21623XXSP,2013-10-02 15:15:00,
2013-10-02 17:20:00,72.3,63.6,29.84,South,180,3.4,4.9,74,0.00,,,0.00,WUHU21623XXSP,2013-10-02 15:20:00,
2013-10-02 17:25:00,72.1,63.8,29.84,NE,45,0.0,4.0,75,0.00,,,0.00,WUHU21623XXSP,2013-10-02 15:25:00,
2013-10-02 17:30:00,72.1,64.1,29.84,ESE,112,0.0,4.0,76,0.00,,,0.00,WUHU21623XXSP,2013-10-02 15:30:00,
2013-10-02 17:33:00,72.0,64.0,29.84,SSW,202,1.8,6.3,76,0.00,,,0.00,WUHU21623XXSP,2013-10-02 15:33:00,
2013-10-02 17:38:00,71.8,63.8,29.84,ESE,112,3.6,6.3,76,0.00,,,0.00,WUHU21623XXSP,2013-10-02 15:38:00,
2013-10-02 17:43:00,71.2,63.2,29.84,SE,135,0.0,6.0,76,0.00,,,0.00,WUHU21623XXSP,2013-10-02 15:43:00,
2013-10-02 17:48:00,70.9,63.3,29.84,East,90,3.1,6.7,77,0.00,,,0.00,WUHU21623XXSP,2013-10-02 15:48:00,
2013-10-02 17:53:00,70.5,62.9,29.84,East,90,1.6,6.7,77,0.00,,,0.00,WUHU21623XXSP,2013-10-02 15:53:00,
2013-10-02 17:58:00,70.3,63.1,29.84,SSE,157,3.8,4.7,78,0.00,,,0.00,WUHU21623XXSP,2013-10-02 15:58:00,
2013-10-02 18:03:00,70.2,62.9,29.84,SE,135,0.0,3.8,78,0.00,,,0.00,WUHU21623XXSP,2013-10-02 16:03:00,
2013-10-02 18:08:00,69.8,62.9,29.84,SE,135,2.0,3.4,79,0.00,,,0.00,WUHU21623XXSP,2013-10-02 16:08:00,
2013-10-02 18:13:00,69.6,63.3,29.85,SE,135,3.4,3.4,80,0.00,,,0.00,WUHU21623XXSP,2013-10-02 16:13:00,
2013-10-02 18:18:00,69.6,63.2,29.85,SSE,157,2.9,3.4,80,0.00,,,0.00,WUHU21623XXSP,2013-10-02 16:18:00,
2013-10-02 18:23:00,69.6,63.2,29.85,SE,135,1.3,2.9,80,0.00,,,0.00,WUHU21623XXSP,2013-10-02 16:23:00,
2013-10-02 18:28:00,69.8,63.3,29.85,SSE,157,0.0,2.5,80,0.00,,,0.00,WUHU21623XXSP,2013-10-02 16:28:00,
2013-10-02 18:33:00,70.0,63.8,29.85,SE,135,0.0,2.5,81,0.00,,,0.00,WUHU21623XXSP,2013-10-02 16:33:00,
2013-10-02 18:38:00,69.8,63.5,29.85,SE,135,0.9,1.1,81,0.00,,,0.00,WUHU21623XXSP,2013-10-02 16:38:00,
2013-10-02 18:43:00,69.8,63.7,29.85,SE,135,0.0,4.5,81,0.00,,,0.00,WUHU21623XXSP,2013-10-02 16:43:00,
2013-10-02 18:48:00,69.8,63.7,29.85,SE,135,0.0,4.5,81,0.00,,,0.00,WUHU21623XXSP,2013-10-02 16:48:00,
2013-10-02 18:53:00,69.6,63.5,29.85,SE,135,2.5,4.5,81,0.00,,,0.00,WUHU21623XXSP,2013-10-02 16:53:00,
2013-10-02 18:58:00,69.6,63.5,29.85,SW,225,0.9,2.9,81,0.00,,,0.00,WUHU21623XXSP,2013-10-02 16:58:00,
2013-10-02 19:03:00,69.6,63.5,29.86,ESE,112,0.0,2.5,81,0.00,,,0.00,WUHU21623XXSP,2013-10-02 17:03:00,
2013-10-02 19:08:00,69.4,63.7,29.86,SSE,157,2.2,2.2,82,0.00,,,0.00,WUHU21623XXSP,2013-10-02 17:08:00,
2013-10-02 19:13:00,69.1,63.3,29.86,SE,135,0.0,2.2,82,0.00,,,0.00,WUHU21623XXSP,2013-10-02 17:13:00,
2013-10-02 19:18:00,69.1,63.3,29.87,SE,135,1.1,1.8,82,0.00,,,0.00,WUHU21623XXSP,2013-10-02 17:18:00,
2013-10-02 19:23:00,69.1,63.3,29.87,SSE,157,1.3,1.3,82,0.00,,,0.00,WUHU21623XXSP,2013-10-02 17:23:00,
2013-10-02 19:28:00,68.9,63.5,29.87,South,180,0.9,1.3,83,0.00,,,0.00,WUHU21623XXSP,2013-10-02 17:28:00,
2013-10-02 19:33:00,68.9,63.5,29.87,ESE,112,0.0,1.1,83,0.00,,,0.00,WUHU21623XXSP,2013-10-02 17:33:00,
2013-10-02 19:38:00,68.9,63.5,29.87,SE,135,0.0,0.0,83,0.00,,,0.00,WUHU21623XXSP,2013-10-02 17:38:00,
2013-10-02 19:43:00,68.9,63.5,29.87,SE,135,0.0,0.0,83,0.00,,,0.00,WUHU21623XXSP,2013-10-02 17:43:00,
2013-10-02 19:48:00,68.9,63.5,29.87,ESE,112,0.0,0.0,83,0.00,,,0.00,WUHU21623XXSP,2013-10-02 17:48:00,
2013-10-02 19:53:00,68.7,63.3,29.88,ESE,112,0.0,0.0,83,0.00,,,0.00,WUHU21623XXSP,2013-10-02 17:53:00,
2013-10-02 19:58:00,68.7,63.3,29.88,ENE,67,0.0,0.0,83,0.00,,,0.00,WUHU21623XXSP,2013-10-02 17:58:00,
2013-10-02 20:03:00,68.7,63.3,29.87,ENE,67,0.0,0.0,83,0.00,,,0.00,WUHU21623XXSP,2013-10-02 18:03:00,
2013-10-02 20:08:00,68.7,63.7,29.88,NE,45,0.0,0.0,84,0.00,,,0.00,WUHU21623XXSP,2013-10-02 18:08:00,
2013-10-02 20:13:00,68.5,63.5,29.88,ENE,67,0.0,0.0,84,0.00,,,0.00,WUHU21623XXSP,2013-10-02 18:13:00,
2013-10-02 20:18:00,68.4,63.3,29.88,ENE,67,0.0,0.0,84,0.00,,,0.00,WUHU21623XXSP,2013-10-02 18:18:00,
2013-10-02 20:23:00,68.4,63.7,29.88,ENE,67,0.0,0.0,85,0.00,,,0.00,WUHU21623XXSP,2013-10-02 18:23:00,
2013-10-02 20:28:00,68.4,63.7,29.88,NE,45,0.0,0.0,85,0.00,,,0.00,WUHU21623XXSP,2013-10-02 18:28:00,
2013-10-02 20:33:00,68.4,63.7,29.87,NE,45,0.0,0.0,85,0.00,,,0.00,WUHU21623XXSP,2013-10-02 18:33:00,
2013-10-02 20:38:00,68.2,63.5,29.87,East,90,0.0,0.0,85,0.00,,,0.00,WUHU21623XXSP,2013-10-02 18:38:00,
2013-10-02 20:43:00,68.2,63.5,29.87,NE,45,0.0,0.0,85,0.00,,,0.00,WUHU21623XXSP,2013-10-02 18:43:00,
2013-10-02 20:48:00,68.2,63.5,29.87,ENE,67,0.0,0.0,85,0.00,,,0.00,WUHU21623XXSP,2013-10-02 18:48:00,
2013-10-02 20:53:00,68.2,63.5,29.87,East,90,0.0,0.0,85,0.00,,,0.00,WUHU21623XXSP,2013-10-02 18:53:00,
2013-10-02 20:58:00,67.8,63.5,29.87,ENE,67,0.0,0.0,86,0.00,,,0.00,WUHU21623XXSP,2013-10-02 18:58:00,
2013-10-02 21:03:00,67.8,63.5,29.87,ENE,67,0.0,0.0,86,0.00,,,0.00,WUHU21623XXSP,2013-10-02 19:03:00,
2013-10-02 21:08:00,67.8,63.5,29.87,ENE,67,0.0,0.0,86,0.00,,,0.00,WUHU21623XXSP,2013-10-02 19:08:00,
2013-10-02 21:13:00,67.6,63.3,29.88,ENE,67,0.0,0.0,86,0.00,,,0.00,WUHU21623XXSP,2013-10-02 19:13:00,
2013-10-02 21:18:00,67.6,63.3,29.87,NE,45,0.0,2.2,86,0.00,,,0.00,WUHU21623XXSP,2013-10-02 19:18:00,
2013-10-02 21:23:00,67.5,63.1,29.87,ENE,67,0.0,2.2,86,0.00,,,0.00,WUHU21623XXSP,2013-10-02 19:23:00,
2013-10-02 21:28:00,67.1,62.4,29.87,ENE,67,0.0,1.3,85,0.00,,,0.00,WUHU21623XXSP,2013-10-02 19:28:00,
2013-10-02 21:33:00,66.9,62.2,29.87,ENE,67,0.0,1.6,85,0.00,,,0.00,WUHU21623XXSP,2013-10-02 19:33:00,
2013-10-02 21:38:00,66.4,62.0,29.88,East,90,0.0,1.6,86,0.00,,,0.00,WUHU21623XXSP,2013-10-02 19:38:00,
2013-10-02 21:43:00,66.0,61.7,29.88,ENE,67,0.0,1.3,86,0.00,,,0.00,WUHU21623XXSP,2013-10-02 19:43:00,
2013-10-02 21:48:00,65.8,61.8,29.88,ENE,67,3.1,3.1,87,0.00,,,0.00,WUHU21623XXSP,2013-10-02 19:48:00,
2013-10-02 21:53:00,65.8,61.8,29.88,ENE,67,1.6,5.1,87,0.00,,,0.00,WUHU21623XXSP,2013-10-02 19:53:00,
2013-10-02 21:58:00,65.8,61.8,29.88,ENE,67,2.7,5.1,87,0.00,,,0.00,WUHU21623XXSP,2013-10-02 19:58:00,
2013-10-02 22:03:00,65.7,61.3,29.88,ENE,67,3.1,4.5,86,0.00,,,0.00,WUHU21623XXSP,2013-10-02 20:03:00,
2013-10-02 22:08:00,65.5,61.2,29.88,ENE,67,0.0,4.5,86,0.00,,,0.00,WUHU21623XXSP,2013-10-02 20:08:00,
2013-10-02 22:13:00,65.3,60.7,29.88,NNE,22,1.6,2.5,85,0.00,,,0.00,WUHU21623XXSP,2013-10-02 20:13:00,
2013-10-02 22:18:00,65.1,60.8,29.88,NE,45,1.6,2.7,86,0.00,,,0.00,WUHU21623XXSP,2013-10-02 20:18:00,
2013-10-02 22:23:00,64.8,60.5,29.88,ENE,67,1.1,2.7,86,0.00,,,0.00,WUHU21623XXSP,2013-10-02 20:23:00,
2013-10-02 22:28:00,64.6,60.3,29.88,ESE,112,2.5,2.9,86,0.00,,,0.00,WUHU21623XXSP,2013-10-02 20:28:00,
2013-10-02 22:33:00,64.2,60.0,29.88,ENE,67,2.0,3.8,86,0.00,,,0.00,WUHU21623XXSP,2013-10-02 20:33:00,
2013-10-02 22:38:00,64.2,60.0,29.89,ENE,67,1.6,3.8,86,0.00,,,0.00,WUHU21623XXSP,2013-10-02 20:38:00,
2013-10-02 22:43:00,64.0,59.5,29.89,ENE,67,1.3,3.6,85,0.00,,,0.00,WUHU21623XXSP,2013-10-02 20:43:00,
2013-10-02 22:48:00,63.7,59.1,29.88,East,90,1.6,3.6,85,0.00,,,0.00,WUHU21623XXSP,2013-10-02 20:48:00,
2013-10-02 22:53:00,63.7,59.1,29.88,ENE,67,0.9,3.8,85,0.00,,,0.00,WUHU21623XXSP,2013-10-02 20:53:00,
2013-10-02 22:58:00,63.5,58.9,29.88,East,90,4.7,4.7,85,0.00,,,0.00,WUHU21623XXSP,2013-10-02 20:58:00,
2013-10-02 23:03:00,63.5,58.9,29.88,NE,45,2.5,4.7,85,0.00,,,0.00,WUHU21623XXSP,2013-10-02 21:03:00,
2013-10-02 23:08:00,63.3,58.7,29.88,ENE,67,2.5,3.4,85,0.00,,,0.00,WUHU21623XXSP,2013-10-02 21:08:00,
2013-10-02 23:13:00,63.1,58.5,29.87,ENE,67,2.2,4.0,85,0.00,,,0.00,WUHU21623XXSP,2013-10-02 21:13:00,
2013-10-02 23:18:00,63.0,58.7,29.88,ENE,67,2.5,4.0,86,0.00,,,0.00,WUHU21623XXSP,2013-10-02 21:18:00,
2013-10-02 23:23:00,63.0,58.7,29.88,East,90,1.6,3.6,86,0.00,,,0.00,WUHU21623XXSP,2013-10-02 21:23:00,
2013-10-02 23:28:00,62.8,58.5,29.88,ESE,112,2.9,3.8,86,0.00,,,0.00,WUHU21623XXSP,2013-10-02 21:28:00,
2013-10-02 23:33:00,62.8,58.2,29.87,East,90,3.8,5.8,85,0.00,,,0.00,WUHU21623XXSP,2013-10-02 21:33:00,
2013-10-02 23:38:00,62.6,58.0,29.87,NE,45,4.5,5.8,85,0.00,,,0.00,WUHU21623XXSP,2013-10-02 21:38:00,
2013-10-02 23:43:00,62.6,58.0,29.87,ESE,112,2.2,4.7,85,0.00,,,0.00,WUHU21623XXSP,2013-10-02 21:43:00,
2013-10-02 23:48:00,62.6,58.0,29.88,ESE,112,4.7,4.7,85,0.00,,,0.00,WUHU21623XXSP,2013-10-02 21:48:00,
2013-10-02 23:53:00,62.4,57.8,29.88,ENE,67,1.8,4.7,85,0.00,,,0.00,WUHU21623XXSP,2013-10-02 21:53:00,
2013-10-02 23:58:00,62.4,57.8,29.88,ESE,112,5.6,5.6,85,0.00,,,0.00,WUHU21623XXSP,2013-10-02 21:58:00,